Year,Month,Day,Hour,Minute,Value (Times are PST for temperature in C)
2022,12,01,00,00,2.00
2022,12,01,00,01,2.00
2022,12,01,00,02,2.00
2022,12,01,00,03,2.00
2022,12,01,00,04,2.00
2022,12,01,00,05,2.00
2022,12,01,00,06,2.00
2022,12,01,00,07,2.00
2022,12,01,00,08,2.00
2022,12,01,00,09,2.00
2022,12,01,00,10,2.00
2022,12,01,00,11,2.00
2022,12,01,00,12,2.00
2022,12,01,00,13,2.00
2022,12,01,00,14,2.00
2022,12,01,00,15,2.00
2022,12,01,00,16,2.00
2022,12,01,00,17,2.00
2022,12,01,00,18,2.00
2022,12,01,00,19,2.00
2022,12,01,00,20,2.00
2022,12,01,00,21,2.00
2022,12,01,00,22,2.00
2022,12,01,00,23,2.10
2022,12,01,00,24,2.10
2022,12,01,00,25,2.10
2022,12,01,00,26,2.10
2022,12,01,00,27,2.10
2022,12,01,00,28,2.10
2022,12,01,00,29,2.10
2022,12,01,00,30,2.00
2022,12,01,00,31,2.00
2022,12,01,00,32,2.00
2022,12,01,00,33,2.00
2022,12,01,00,34,2.00
2022,12,01,00,35,2.00
2022,12,01,00,36,1.90
2022,12,01,00,37,1.90
2022,12,01,00,38,1.90
2022,12,01,00,39,1.90
2022,12,01,00,40,1.90
2022,12,01,00,41,1.90
2022,12,01,00,42,1.80
2022,12,01,00,43,1.80
2022,12,01,00,44,1.80
2022,12,01,00,45,1.80
2022,12,01,00,46,1.80
2022,12,01,00,47,1.80
2022,12,01,00,48,1.80
2022,12,01,00,49,1.80
2022,12,01,00,50,1.80
2022,12,01,00,51,1.80
2022,12,01,00,52,1.80
2022,12,01,00,53,1.80
2022,12,01,00,54,1.80
2022,12,01,00,55,1.80
2022,12,01,00,56,1.80
2022,12,01,00,57,1.80
2022,12,01,00,58,1.80
2022,12,01,00,59,1.80
2022,12,01,01,00,1.80
2022,12,01,01,01,1.80
2022,12,01,01,02,1.80
2022,12,01,01,03,1.80
2022,12,01,01,04,1.80
2022,12,01,01,05,1.80
2022,12,01,01,06,1.80
2022,12,01,01,07,1.80
2022,12,01,01,08,1.80
2022,12,01,01,09,1.80
2022,12,01,01,10,1.80
2022,12,01,01,11,1.90
2022,12,01,01,12,1.90
2022,12,01,01,13,1.90
2022,12,01,01,14,1.90
2022,12,01,01,15,1.90
2022,12,01,01,16,1.90
2022,12,01,01,17,1.90
2022,12,01,01,18,2.00
2022,12,01,01,19,2.00
2022,12,01,01,20,2.00
2022,12,01,01,21,2.10
2022,12,01,01,22,2.10
2022,12,01,01,23,2.10
2022,12,01,01,24,2.10
2022,12,01,01,25,2.20
2022,12,01,01,26,2.20
2022,12,01,01,27,2.20
2022,12,01,01,28,2.20
2022,12,01,01,29,2.20
2022,12,01,01,30,2.20
2022,12,01,01,31,2.20
2022,12,01,01,32,2.20
2022,12,01,01,33,2.20
2022,12,01,01,34,2.20
2022,12,01,01,35,2.30
2022,12,01,01,36,2.20
2022,12,01,01,37,2.20
2022,12,01,01,38,2.20
2022,12,01,01,39,2.30
2022,12,01,01,40,2.20
2022,12,01,01,41,2.20
2022,12,01,01,42,2.30
2022,12,01,01,43,2.30
2022,12,01,01,44,2.30
2022,12,01,01,45,2.30
2022,12,01,01,46,2.30
2022,12,01,01,47,2.30
2022,12,01,01,48,2.30
2022,12,01,01,49,2.30
2022,12,01,01,50,2.30
2022,12,01,01,51,2.30
2022,12,01,01,52,2.30
2022,12,01,01,53,2.30
2022,12,01,01,54,2.30
2022,12,01,01,55,2.30
2022,12,01,01,56,2.30
2022,12,01,01,57,2.30
2022,12,01,01,58,2.30
2022,12,01,01,59,2.30
2022,12,01,02,00,2.30
2022,12,01,02,01,2.40
2022,12,01,02,02,2.40
2022,12,01,02,03,2.40
2022,12,01,02,04,2.40
2022,12,01,02,05,2.40
2022,12,01,02,06,2.40
2022,12,01,02,07,2.40
2022,12,01,02,08,2.40
2022,12,01,02,09,2.40
2022,12,01,02,10,2.40
2022,12,01,02,11,2.40
2022,12,01,02,12,2.40
2022,12,01,02,13,2.40
2022,12,01,02,14,2.40
2022,12,01,09,26,1.20
2022,12,01,09,27,1.20
2022,12,01,09,28,1.20
2022,12,01,09,29,1.20
2022,12,01,09,30,1.20
2022,12,01,09,31,1.20
2022,12,01,09,32,1.20
2022,12,01,09,33,1.20
2022,12,01,09,34,1.20
2022,12,01,09,35,1.20
2022,12,01,09,36,1.20
2022,12,01,09,37,1.20
2022,12,01,09,38,1.20
2022,12,01,09,39,1.20
2022,12,01,09,40,1.10
2022,12,01,09,41,1.10
2022,12,01,09,42,1.10
2022,12,01,09,43,1.10
2022,12,01,09,44,1.10
2022,12,01,09,45,1.10
2022,12,01,09,46,1.10
2022,12,01,09,47,1.10
2022,12,01,09,48,1.10
2022,12,01,09,49,1.10
2022,12,01,09,50,1.10
2022,12,01,09,51,1.10
2022,12,01,09,52,1.10
2022,12,01,09,53,1.10
2022,12,01,09,54,1.10
2022,12,01,09,55,1.20
2022,12,01,09,56,1.20
2022,12,01,09,57,1.20
2022,12,01,09,58,1.20
2022,12,01,09,59,1.20
2022,12,01,10,00,1.20
2022,12,01,10,01,1.30
2022,12,01,10,02,1.30
2022,12,01,10,03,1.20
2022,12,01,10,04,1.20
2022,12,01,10,05,1.20
2022,12,01,10,06,1.20
2022,12,01,10,07,1.20
2022,12,01,10,08,1.20
2022,12,01,10,09,1.20
2022,12,01,10,10,1.20
2022,12,01,10,11,1.20
2022,12,01,10,12,1.20
2022,12,01,10,13,1.20
2022,12,01,10,14,1.20
2022,12,01,10,15,1.20
2022,12,01,10,16,1.20
2022,12,01,10,17,1.10
2022,12,01,10,18,1.10
2022,12,01,10,19,1.10
2022,12,01,10,20,1.10
2022,12,01,10,21,1.10
2022,12,01,10,22,1.10
2022,12,01,10,23,1.10
2022,12,01,10,24,1.10
2022,12,01,10,25,1.10
2022,12,01,10,26,1.10
2022,12,01,10,27,1.10
2022,12,01,10,28,1.20
2022,12,01,10,29,1.20
2022,12,01,10,30,1.20
2022,12,01,10,31,1.10
2022,12,01,10,32,1.10
2022,12,01,10,33,1.10
2022,12,01,10,34,1.10
2022,12,01,10,35,1.10
2022,12,01,10,36,1.10
2022,12,01,10,37,1.10
2022,12,01,10,38,1.10
2022,12,01,10,39,1.10
2022,12,01,10,40,1.10
2022,12,01,10,41,1.10
2022,12,01,10,42,1.20
2022,12,01,10,43,1.20
2022,12,01,10,44,1.20
2022,12,01,10,45,1.20
2022,12,01,10,46,1.20
2022,12,01,10,47,1.20
2022,12,01,10,48,1.20
2022,12,01,10,49,1.20
2022,12,01,10,50,1.20
2022,12,01,10,51,1.20
2022,12,01,10,52,1.20
2022,12,01,10,53,1.20
2022,12,01,10,54,1.30
2022,12,01,10,55,1.20
2022,12,01,10,56,1.20
2022,12,01,10,57,1.20
2022,12,01,10,58,1.20
2022,12,01,10,59,1.20
2022,12,01,11,00,1.20
2022,12,01,11,01,1.20
2022,12,01,11,02,1.20
2022,12,01,11,03,1.20
2022,12,01,11,04,1.20
2022,12,01,11,05,1.10
2022,12,01,11,06,1.10
2022,12,01,11,07,1.10
2022,12,01,11,08,1.10
2022,12,01,11,09,1.10
2022,12,01,11,10,1.10
2022,12,01,11,11,1.10
2022,12,01,11,12,1.10
2022,12,01,11,13,1.10
2022,12,01,11,14,1.10
2022,12,01,11,15,1.00
2022,12,01,11,16,1.00
2022,12,01,11,17,1.00
2022,12,01,11,18,1.00
2022,12,01,11,19,1.00
2022,12,01,11,20,1.00
2022,12,01,11,21,1.00
2022,12,01,11,22,1.00
2022,12,01,11,23,1.00
2022,12,01,11,24,1.00
2022,12,01,11,25,1.00
2022,12,01,11,26,1.10
2022,12,01,11,27,1.00
2022,12,01,11,28,1.00
2022,12,01,11,29,1.10
2022,12,01,11,30,1.10
2022,12,01,11,31,1.10
2022,12,01,11,32,1.10
2022,12,01,11,33,1.10
2022,12,01,11,34,1.20
2022,12,01,11,35,1.20
2022,12,01,11,36,1.20
2022,12,01,11,37,1.20
2022,12,01,11,38,1.20
2022,12,01,11,39,1.20
2022,12,01,11,40,1.10
2022,12,01,11,41,1.10
2022,12,01,11,42,1.10
2022,12,01,11,43,1.00
2022,12,01,11,44,1.10
2022,12,01,11,45,1.00
2022,12,01,11,46,1.00
2022,12,01,11,47,1.00
2022,12,01,11,48,1.10
2022,12,01,11,49,1.20
2022,12,01,11,50,1.20
2022,12,01,11,51,1.20
2022,12,01,11,52,1.20
2022,12,01,11,53,1.20
2022,12,01,11,54,1.20
2022,12,01,11,55,1.20
2022,12,01,11,56,1.20
2022,12,01,11,57,1.20
2022,12,01,11,58,1.20
2022,12,01,11,59,1.20
2022,12,01,12,00,1.20
2022,12,01,12,01,1.20
2022,12,01,12,02,1.20
2022,12,01,12,03,1.20
2022,12,01,12,04,1.20
2022,12,01,12,05,1.20
2022,12,01,12,06,1.20
2022,12,01,12,07,1.20
2022,12,01,12,08,1.20
2022,12,01,12,09,1.20
2022,12,01,12,10,1.20
2022,12,01,12,11,1.20
2022,12,01,12,12,1.20
2022,12,01,12,13,1.20
2022,12,01,12,14,1.20
2022,12,01,12,15,1.10
2022,12,01,12,16,1.10
2022,12,01,12,17,1.10
2022,12,01,12,18,1.10
2022,12,01,12,19,1.10
2022,12,01,12,20,1.20
2022,12,01,12,21,1.20
2022,12,01,12,22,1.20
2022,12,01,12,23,1.20
2022,12,01,12,24,1.20
2022,12,01,12,25,1.20
2022,12,01,12,26,1.20
2022,12,01,12,27,1.20
2022,12,01,12,28,1.20
2022,12,01,12,29,1.30
2022,12,01,12,30,1.30
2022,12,01,12,31,1.30
2022,12,01,12,32,1.30
2022,12,01,12,33,1.40
2022,12,01,12,34,1.40
2022,12,01,12,35,1.40
2022,12,01,12,36,1.50
2022,12,01,12,37,1.50
2022,12,01,12,38,1.40
2022,12,01,12,39,1.40
2022,12,01,12,40,1.40
2022,12,01,12,41,1.40
2022,12,01,12,42,1.50
2022,12,01,12,43,1.40
2022,12,01,12,44,1.50
2022,12,01,12,45,1.50
2022,12,01,12,46,1.60
2022,12,01,12,47,1.60
2022,12,01,12,48,1.60
2022,12,01,12,49,1.60
2022,12,01,12,50,1.50
2022,12,01,12,51,1.50
2022,12,01,12,52,1.50
2022,12,01,12,53,1.40
2022,12,01,12,54,1.40
2022,12,01,12,55,1.50
2022,12,01,12,56,1.40
2022,12,01,12,57,1.40
2022,12,01,12,58,1.40
2022,12,01,12,59,1.40
2022,12,01,13,00,1.40
2022,12,01,13,01,1.40
2022,12,01,13,02,1.40
2022,12,01,13,03,1.40
2022,12,01,13,04,1.40
2022,12,01,13,05,1.40
2022,12,01,13,06,1.40
2022,12,01,13,07,1.40
2022,12,01,13,08,1.40
2022,12,01,13,09,1.40
2022,12,01,13,10,1.40
2022,12,01,13,11,1.40
2022,12,01,13,12,1.40
2022,12,01,13,13,1.40
2022,12,01,13,14,1.40
2022,12,01,13,15,1.40
2022,12,01,13,16,1.40
2022,12,01,13,17,1.50
2022,12,01,13,18,1.50
2022,12,01,13,19,1.50
2022,12,01,13,20,1.50
2022,12,01,13,21,1.50
2022,12,01,13,22,1.40
2022,12,01,13,23,1.40
2022,12,01,13,24,1.40
2022,12,01,13,25,1.30
2022,12,01,13,26,1.30
2022,12,01,13,27,1.30
2022,12,01,13,28,1.40
2022,12,01,13,29,1.40
2022,12,01,13,30,1.40
2022,12,01,13,31,1.40
2022,12,01,13,32,1.40
2022,12,01,13,33,1.40
2022,12,01,13,34,1.50
2022,12,01,13,35,1.50
2022,12,01,13,36,1.50
2022,12,01,13,37,1.50
2022,12,01,13,38,1.60
2022,12,01,13,39,1.60
2022,12,01,13,40,1.60
2022,12,01,13,41,1.60
2022,12,01,13,42,1.60
2022,12,01,13,43,1.60
2022,12,01,13,44,1.60
2022,12,01,13,45,1.60
2022,12,01,13,46,1.60
2022,12,01,13,47,1.60
2022,12,01,13,48,1.50
2022,12,01,13,49,1.50
2022,12,01,13,50,1.40
2022,12,01,13,51,1.40
2022,12,01,13,52,1.30
2022,12,01,13,53,1.30
2022,12,01,13,54,1.30
2022,12,01,13,55,1.30
2022,12,01,13,56,1.40
2022,12,01,13,57,1.40
2022,12,01,13,58,1.40
2022,12,01,13,59,1.40
2022,12,01,14,00,1.40
2022,12,01,14,01,1.40
2022,12,01,14,02,1.40
2022,12,01,14,03,1.40
2022,12,01,14,04,1.40
2022,12,01,14,05,1.40
2022,12,01,14,06,1.40
2022,12,01,14,07,1.30
2022,12,01,14,08,1.30
2022,12,01,14,09,1.30
2022,12,01,14,10,1.40
2022,12,01,14,11,1.40
2022,12,01,14,12,1.50
2022,12,01,14,13,1.50
2022,12,01,14,14,1.50
2022,12,01,14,15,1.50
2022,12,01,14,16,1.50
2022,12,01,14,17,1.40
2022,12,01,14,18,1.40
2022,12,01,14,19,1.40
2022,12,01,14,20,1.50
2022,12,01,14,21,1.50
2022,12,01,14,22,1.60
2022,12,01,14,23,1.70
2022,12,01,14,24,1.70
2022,12,01,14,25,1.70
2022,12,01,14,26,1.70
2022,12,01,14,27,1.70
2022,12,01,14,28,1.60
2022,12,01,14,29,1.60
2022,12,01,14,30,1.60
2022,12,01,14,31,1.50
2022,12,01,14,32,1.50
2022,12,01,14,33,1.60
2022,12,01,14,34,1.60
2022,12,01,14,35,1.50
2022,12,01,14,36,1.50
2022,12,01,14,37,1.50
2022,12,01,14,38,1.50
2022,12,01,14,39,1.50
2022,12,01,14,40,1.60
2022,12,01,14,41,1.60
2022,12,01,14,42,1.60
2022,12,01,14,43,1.60
2022,12,01,14,44,1.60
2022,12,01,14,45,1.60
2022,12,01,14,46,1.60
2022,12,01,14,47,1.60
2022,12,01,14,48,1.50
2022,12,01,14,49,1.50
2022,12,01,14,50,1.50
2022,12,01,14,51,1.50
2022,12,01,14,52,1.50
2022,12,01,14,53,1.60
2022,12,01,14,54,1.60
2022,12,01,14,55,1.60
2022,12,01,14,56,1.60
2022,12,01,14,57,1.60
2022,12,01,14,58,1.60
2022,12,01,14,59,1.60
2022,12,01,15,00,1.60
2022,12,01,15,01,1.60
2022,12,01,15,02,1.50
2022,12,01,15,03,1.50
2022,12,01,15,04,1.40
2022,12,01,15,05,1.40
2022,12,01,15,06,1.50
2022,12,01,15,07,1.50
2022,12,01,15,08,1.50
2022,12,01,15,09,1.60
2022,12,01,15,10,1.60
2022,12,01,15,11,1.60
2022,12,01,15,12,1.60
2022,12,01,15,13,1.60
2022,12,01,15,14,1.60
2022,12,01,15,15,1.60
2022,12,01,15,16,1.60
2022,12,01,15,17,1.60
2022,12,01,15,18,1.60
2022,12,01,15,19,1.60
2022,12,01,15,20,1.60
2022,12,01,15,21,1.50
2022,12,01,15,22,1.50
2022,12,01,15,23,1.50
2022,12,01,15,24,1.50
2022,12,01,15,25,1.50
2022,12,01,15,26,1.40
2022,12,01,15,27,1.40
2022,12,01,15,28,1.40
2022,12,01,15,29,1.40
2022,12,01,15,30,1.40
2022,12,01,15,31,1.30
2022,12,01,15,32,1.30
2022,12,01,15,33,1.30
2022,12,01,15,34,1.30
2022,12,01,15,35,1.30
2022,12,01,15,36,1.30
2022,12,01,15,37,1.30
2022,12,01,15,38,1.30
2022,12,01,15,39,1.30
2022,12,01,15,40,1.30
2022,12,01,15,41,1.30
2022,12,01,15,42,1.30
2022,12,01,15,43,1.30
2022,12,01,15,44,1.30
2022,12,01,15,45,1.30
2022,12,01,15,46,1.20
2022,12,01,15,47,1.20
2022,12,01,15,48,1.20
2022,12,01,15,49,1.20
2022,12,01,15,50,1.20
2022,12,01,15,51,1.20
2022,12,01,15,52,1.20
2022,12,01,15,53,1.10
2022,12,01,15,54,1.10
2022,12,01,15,55,1.10
2022,12,01,15,56,1.10
2022,12,01,15,57,1.10
2022,12,01,15,58,1.10
2022,12,01,15,59,1.10
2022,12,01,16,00,1.10
2022,12,01,16,01,1.10
2022,12,01,16,02,1.10
2022,12,01,16,03,1.10
2022,12,01,16,04,1.10
2022,12,01,16,05,1.10
2022,12,01,16,06,1.00
2022,12,01,16,07,1.00
2022,12,01,16,08,1.00
2022,12,01,16,09,1.00
2022,12,01,16,10,1.00
2022,12,01,16,11,1.00
2022,12,01,16,12,1.00
2022,12,01,16,13,0.90
2022,12,01,16,14,1.00
2022,12,01,16,15,1.00
2022,12,01,16,16,1.00
2022,12,01,16,17,1.00
2022,12,01,16,18,1.00
2022,12,01,16,19,1.00
2022,12,01,16,20,1.00
2022,12,01,16,21,1.00
2022,12,01,16,22,1.00
2022,12,01,16,23,1.00
2022,12,01,16,24,1.00
2022,12,01,16,25,1.00
2022,12,01,16,26,0.90
2022,12,01,16,27,0.90
2022,12,01,16,28,0.90
2022,12,01,16,29,0.90
2022,12,01,16,30,0.90
2022,12,01,16,31,0.90
2022,12,01,16,32,0.90
2022,12,01,16,33,0.90
2022,12,01,16,34,0.80
2022,12,01,16,35,0.80
2022,12,01,16,36,0.80
2022,12,01,16,37,0.80
2022,12,01,16,38,0.80
2022,12,01,16,39,0.80
2022,12,01,16,40,0.80
2022,12,01,16,41,0.80
2022,12,01,16,42,0.80
2022,12,01,16,43,0.80
2022,12,01,16,44,0.80
2022,12,01,16,45,0.80
2022,12,01,16,46,0.80
2022,12,01,16,47,0.80
2022,12,01,16,48,0.80
2022,12,01,16,49,0.80
2022,12,01,16,50,0.80
2022,12,01,16,51,0.80
2022,12,01,16,52,0.80
2022,12,01,16,53,0.80
2022,12,01,16,54,0.80
2022,12,01,16,55,0.80
2022,12,01,16,56,0.80
2022,12,01,16,57,0.80
2022,12,01,16,58,0.80
2022,12,01,16,59,0.80
2022,12,01,17,00,0.80
2022,12,01,17,01,0.80
2022,12,01,17,02,0.80
2022,12,01,17,03,0.80
2022,12,01,17,04,0.80
2022,12,01,17,05,0.80
2022,12,01,17,06,0.80
2022,12,01,17,07,0.80
2022,12,01,17,08,0.70
2022,12,01,17,09,0.70
2022,12,01,17,10,0.70
2022,12,01,17,11,0.70
2022,12,01,17,12,0.70
2022,12,01,17,13,0.70
2022,12,01,17,14,0.70
2022,12,01,17,15,0.70
2022,12,01,17,16,0.70
2022,12,01,17,17,0.70
2022,12,01,17,18,0.70
2022,12,01,17,19,0.70
2022,12,01,17,20,0.60
2022,12,01,17,21,0.60
2022,12,01,17,22,0.60
2022,12,01,17,23,0.60
2022,12,01,17,24,0.60
2022,12,01,17,25,0.60
2022,12,01,17,26,0.60
2022,12,01,17,27,0.60
2022,12,01,17,28,0.60
2022,12,01,17,29,0.60
2022,12,01,17,30,0.60
2022,12,01,17,31,0.60
2022,12,01,17,32,0.60
2022,12,01,17,33,0.60
2022,12,01,17,34,0.60
2022,12,01,17,35,0.60
2022,12,01,17,36,0.60
2022,12,01,17,37,0.60
2022,12,01,17,38,0.60
2022,12,01,17,39,0.60
2022,12,01,17,40,0.60
2022,12,01,17,41,0.60
2022,12,01,17,42,0.50
2022,12,01,17,43,0.50
2022,12,01,17,44,0.50
2022,12,01,17,45,0.50
2022,12,01,17,46,0.50
2022,12,01,17,47,0.50
2022,12,01,17,48,0.50
2022,12,01,17,49,0.50
2022,12,01,17,50,0.50
2022,12,01,17,51,0.50
2022,12,01,17,52,0.50
2022,12,01,17,53,0.50
2022,12,01,17,54,0.50
2022,12,01,17,55,0.50
2022,12,01,17,56,0.50
2022,12,01,17,57,0.50
2022,12,01,17,58,0.50
2022,12,01,17,59,0.50
2022,12,01,18,00,0.40
2022,12,01,18,01,0.40
2022,12,01,18,02,0.40
2022,12,01,18,03,0.40
2022,12,01,18,04,0.40
2022,12,01,18,05,0.30
2022,12,01,18,06,0.30
2022,12,01,18,07,0.30
2022,12,01,18,08,0.30
2022,12,01,18,09,0.20
2022,12,01,18,10,0.20
2022,12,01,18,11,0.10
2022,12,01,18,12,0.10
2022,12,01,18,13,0.10
2022,12,01,18,14,0.00
2022,12,01,18,15,0.00
2022,12,01,18,16,-0.10
2022,12,01,18,17,-0.10
2022,12,01,18,18,-0.10
2022,12,01,18,19,-0.10
2022,12,01,18,20,-0.20
2022,12,01,18,21,-0.20
2022,12,01,18,22,-0.20
2022,12,01,18,23,-0.20
2022,12,01,18,24,-0.30
2022,12,01,18,25,-0.30
2022,12,01,18,26,-0.30
2022,12,01,18,27,-0.30
2022,12,01,18,28,-0.30
2022,12,01,18,29,-0.30
2022,12,01,18,30,-0.30
2022,12,01,18,31,-0.30
2022,12,01,18,32,-0.30
2022,12,01,18,33,-0.40
2022,12,01,18,34,-0.40
2022,12,01,18,35,-0.30
2022,12,01,18,36,-0.30
2022,12,01,18,37,-0.30
2022,12,01,18,38,-0.30
2022,12,01,18,39,-0.30
2022,12,01,18,40,-0.30
2022,12,01,18,41,-0.30
2022,12,01,18,42,-0.30
2022,12,01,18,43,-0.30
2022,12,01,18,44,-0.40
2022,12,01,18,45,-0.40
2022,12,01,18,46,-0.40
2022,12,01,18,47,-0.40
2022,12,01,18,48,-0.40
2022,12,01,18,49,-0.50
2022,12,01,18,50,-0.50
2022,12,01,18,51,-0.40
2022,12,01,18,52,-0.40
2022,12,01,18,53,-0.40
2022,12,01,18,54,-0.40
2022,12,01,18,55,-0.40
2022,12,01,18,56,-0.40
2022,12,01,18,57,-0.40
2022,12,01,18,58,-0.40
2022,12,01,18,59,-0.40
2022,12,01,19,00,-0.40
2022,12,01,19,01,-0.50
2022,12,01,19,02,-0.50
2022,12,01,19,03,-0.60
2022,12,01,19,04,-0.60
2022,12,01,19,05,-0.60
2022,12,01,19,06,-0.60
2022,12,01,19,07,-0.70
2022,12,01,19,08,-0.70
2022,12,01,19,09,-0.70
2022,12,01,19,10,-0.70
2022,12,01,19,11,-0.80
2022,12,01,19,12,-0.80
2022,12,01,19,13,-0.80
2022,12,01,19,14,-0.80
2022,12,01,19,15,-0.80
2022,12,01,19,16,-0.80
2022,12,01,19,17,-0.80
2022,12,01,19,18,-0.80
2022,12,01,19,19,-0.80
2022,12,01,19,20,-0.80
2022,12,01,19,21,-0.80
2022,12,01,19,22,-0.80
2022,12,01,19,23,-0.80
2022,12,01,19,24,-0.80
2022,12,01,19,25,-0.80
2022,12,01,19,26,-0.80
2022,12,01,19,27,-0.80
2022,12,01,19,28,-0.80
2022,12,01,19,29,-0.80
2022,12,01,19,30,-0.70
2022,12,01,19,31,-0.70
2022,12,01,19,32,-0.70
2022,12,01,19,33,-0.70
2022,12,01,19,34,-0.70
2022,12,01,19,35,-0.70
2022,12,01,19,36,-0.70
2022,12,01,19,37,-0.70
2022,12,01,19,38,-0.70
2022,12,01,19,39,-0.70
2022,12,01,19,40,-0.70
2022,12,01,19,41,-0.70
2022,12,01,19,42,-0.70
2022,12,01,19,43,-0.70
2022,12,01,19,44,-0.70
2022,12,01,19,45,-0.70
2022,12,01,19,46,-0.70
2022,12,01,19,47,-0.80
2022,12,01,19,48,-0.80
2022,12,01,19,49,-0.80
2022,12,01,19,50,-0.80
2022,12,01,19,51,-0.80
2022,12,01,19,52,-0.80
2022,12,01,19,53,-0.80
2022,12,01,19,54,-0.80
2022,12,01,19,55,-0.80
2022,12,01,19,56,-0.80
2022,12,01,19,57,-0.80
2022,12,01,19,58,-0.80
2022,12,01,19,59,-0.80
2022,12,01,20,00,-0.80
2022,12,01,20,01,-0.90
2022,12,01,20,02,-0.90
2022,12,01,20,03,-0.90
2022,12,01,20,04,-0.90
2022,12,01,20,05,-0.90
2022,12,01,20,06,-0.90
2022,12,01,20,07,-0.80
2022,12,01,20,08,-0.80
2022,12,01,20,09,-0.80
2022,12,01,20,10,-0.80
2022,12,01,20,11,-0.80
2022,12,01,20,12,-0.80
2022,12,01,20,13,-0.80
2022,12,01,20,14,-0.80
2022,12,01,20,15,-0.90
2022,12,01,20,16,-0.90
2022,12,01,20,17,-0.90
2022,12,01,20,18,-1.00
2022,12,01,20,19,-1.00
2022,12,01,20,20,-1.00
2022,12,01,20,21,-1.10
2022,12,01,20,22,-1.10
2022,12,01,20,23,-1.10
2022,12,01,20,24,-1.10
2022,12,01,20,25,-1.10
2022,12,01,20,26,-1.10
2022,12,01,20,27,-1.10
2022,12,01,20,28,-1.10
2022,12,01,20,29,-1.10
2022,12,01,20,30,-1.10
2022,12,01,20,31,-1.20
2022,12,01,20,32,-1.20
2022,12,01,20,33,-1.20
2022,12,01,20,34,-1.20
2022,12,01,20,35,-1.20
2022,12,01,20,36,-1.10
2022,12,01,20,37,-1.10
2022,12,01,20,38,-1.10
2022,12,01,20,39,-1.10
2022,12,01,20,40,-1.10
2022,12,01,20,41,-1.10
2022,12,01,20,42,-1.10
2022,12,01,20,43,-1.10
2022,12,01,20,44,-1.20
2022,12,01,20,45,-1.20
2022,12,01,20,46,-1.20
2022,12,01,20,47,-1.30
2022,12,01,20,48,-1.30
2022,12,01,20,49,-1.30
2022,12,01,20,50,-1.30
2022,12,01,20,51,-1.30
2022,12,01,20,52,-1.30
2022,12,01,20,53,-1.30
2022,12,01,20,54,-1.30
2022,12,01,20,55,-1.30
2022,12,01,20,56,-1.30
2022,12,01,20,57,-1.30
2022,12,01,20,58,-1.30
2022,12,01,20,59,-1.30
2022,12,01,21,00,-1.30
2022,12,01,21,01,-1.30
2022,12,01,21,02,-1.30
2022,12,01,21,03,-1.30
2022,12,01,21,04,-1.30
2022,12,01,21,05,-1.30
2022,12,01,21,06,-1.20
2022,12,01,21,07,-1.20
2022,12,01,21,08,-1.20
2022,12,01,21,09,-1.20
2022,12,01,21,10,-1.20
2022,12,01,21,11,-1.20
2022,12,01,21,12,-1.20
2022,12,01,21,13,-1.20
2022,12,01,21,14,-1.20
2022,12,01,21,15,-1.20
2022,12,01,21,16,-1.20
2022,12,01,21,17,-1.20
2022,12,01,21,18,-1.20
2022,12,01,21,19,-1.20
2022,12,01,21,20,-1.20
2022,12,01,21,21,-1.20
2022,12,01,21,22,-1.10
2022,12,01,21,23,-1.10
2022,12,01,21,24,-1.10
2022,12,01,21,25,-1.10
2022,12,01,21,26,-1.10
2022,12,01,21,27,-1.10
2022,12,01,21,28,-1.10
2022,12,01,21,29,-1.10
2022,12,01,21,30,-1.10
2022,12,01,21,31,-1.00
2022,12,01,21,32,-1.00
2022,12,01,21,33,-1.00
2022,12,01,21,34,-0.90
2022,12,01,21,35,-0.90
2022,12,01,21,36,-0.90
2022,12,01,21,37,-0.80
2022,12,01,21,38,-0.80
2022,12,01,21,39,-0.70
2022,12,01,21,40,-0.70
2022,12,01,21,41,-0.70
2022,12,01,21,42,-0.60
2022,12,01,21,43,-0.60
2022,12,01,21,44,-0.50
2022,12,01,21,45,-0.50
2022,12,01,21,46,-0.50
2022,12,01,21,47,-0.50
2022,12,01,21,48,-0.40
2022,12,01,21,49,-0.40
2022,12,01,21,50,-0.40
2022,12,01,21,51,-0.40
2022,12,01,21,52,-0.30
2022,12,01,21,53,-0.30
2022,12,01,21,54,-0.30
2022,12,01,21,55,-0.30
2022,12,01,21,56,-0.20
2022,12,01,21,57,-0.20
2022,12,01,21,58,-0.20
2022,12,01,21,59,-0.20
2022,12,01,22,00,-0.10
2022,12,01,22,01,-0.10
2022,12,01,22,02,-0.10
2022,12,01,22,03,-0.10
2022,12,01,22,04,0.00
2022,12,01,22,05,0.00
2022,12,01,22,06,0.00
2022,12,01,22,07,0.00
2022,12,01,22,08,0.10
2022,12,01,22,09,0.10
2022,12,01,22,10,0.10
2022,12,01,22,11,0.10
2022,12,01,22,12,0.20
2022,12,01,22,13,0.20
2022,12,01,22,14,0.20
2022,12,01,22,15,0.20
2022,12,01,22,16,0.20
2022,12,01,22,17,0.20
2022,12,01,22,18,0.30
2022,12,01,22,19,0.30
2022,12,01,22,20,0.30
2022,12,01,22,21,0.30
2022,12,01,22,22,0.30
2022,12,01,22,23,0.30
2022,12,01,22,24,0.30
2022,12,01,22,25,0.30
2022,12,01,22,26,0.40
2022,12,01,22,27,0.40
2022,12,01,22,28,0.40
2022,12,01,22,29,0.40
2022,12,01,22,30,0.40
2022,12,01,22,31,0.40
2022,12,01,22,32,0.40
2022,12,01,22,33,0.40
2022,12,01,22,34,0.40
2022,12,01,22,35,0.40
2022,12,01,22,36,0.40
2022,12,01,22,37,0.40
2022,12,01,22,38,0.40
2022,12,01,22,39,0.40
2022,12,01,22,40,0.40
2022,12,01,22,41,0.40
2022,12,01,22,42,0.40
2022,12,01,22,43,0.50
2022,12,01,22,44,0.50
2022,12,01,22,45,0.50
2022,12,01,22,46,0.50
2022,12,01,22,47,0.50
2022,12,01,22,48,0.50
2022,12,01,22,49,0.50
2022,12,01,22,50,0.50
2022,12,01,22,51,0.50
2022,12,01,22,52,0.60
2022,12,01,22,53,0.60
2022,12,01,22,54,0.60
2022,12,01,22,55,0.60
2022,12,01,22,56,0.60
2022,12,01,22,57,0.60
2022,12,01,22,58,0.60
2022,12,01,22,59,0.60
2022,12,01,23,00,0.60
2022,12,01,23,01,0.60
2022,12,01,23,02,0.60
2022,12,01,23,03,0.70
2022,12,01,23,04,0.70
2022,12,01,23,05,0.70
2022,12,01,23,06,0.70
2022,12,01,23,07,0.70
2022,12,01,23,08,0.70
2022,12,01,23,09,0.70
2022,12,01,23,10,0.70
2022,12,01,23,11,0.70
2022,12,01,23,12,0.70
2022,12,01,23,13,0.70
2022,12,01,23,14,0.70
2022,12,01,23,15,0.70
2022,12,01,23,16,0.70
2022,12,01,23,17,0.80
2022,12,01,23,18,0.70
2022,12,01,23,19,0.70
2022,12,01,23,20,0.70
2022,12,01,23,21,0.70
2022,12,01,23,22,0.70
2022,12,01,23,23,0.70
2022,12,01,23,24,0.70
2022,12,01,23,25,0.70
2022,12,01,23,26,0.70
2022,12,01,23,27,0.70
2022,12,01,23,28,0.60
2022,12,01,23,29,0.60
2022,12,01,23,30,0.60
2022,12,01,23,31,0.60
2022,12,01,23,32,0.60
2022,12,01,23,33,0.60
2022,12,01,23,34,0.50
2022,12,01,23,35,0.50
2022,12,01,23,36,0.50
2022,12,01,23,37,0.50
2022,12,01,23,38,0.50
2022,12,01,23,39,0.50
2022,12,01,23,40,0.40
2022,12,01,23,41,0.40
2022,12,01,23,42,0.40
2022,12,01,23,43,0.40
2022,12,01,23,44,0.40
2022,12,01,23,45,0.40
2022,12,01,23,46,0.40
2022,12,01,23,47,0.40
2022,12,01,23,48,0.40
2022,12,01,23,49,0.40
2022,12,01,23,50,0.40
2022,12,01,23,51,0.40
2022,12,01,23,52,0.40
2022,12,01,23,53,0.40
2022,12,01,23,54,0.40
2022,12,01,23,55,0.40
2022,12,01,23,56,0.40
2022,12,01,23,57,0.40
2022,12,01,23,58,0.50
2022,12,01,23,59,0.50
